Regional Weather Roundup
Issued by NWS

Home | Current Version | Previous Version | Text Only | Print | Product List | Glossary Off
Versions: 1 2 3 4 5 6 7 8 9 10 11 12 13 14 15 16 17 18 19 20 21 22 23 24 25 26 27 28 29 30 31 32 33 34 35 36 37 38 39 40 41 42 43 44 45 46 47 48 49 50

880
ASUS43 KIND 221000
RWRIN

WEATHER ROUNDUP FOR INDIANA
NATIONAL WEATHER SERVICE INDIANAPOLIS IN
600 AM EDT THU JUN 22 2017

NOTE: "FAIR" INDICATES FEW OR NO CLOUDS BELOW 12,000 FEET WITH NO
SIGNIFICANT WEATHER AND/OR OBSTRUCTIONS TO VISIBILITY.

* - STATION DOES NOT REPORT WEATHER SUCH AS PRECIPITATION OR FOG.

+ - STATION NOT QUALITY CONTROLLED BY THE NATIONAL WEATHER SERVICE.
    USE DATA WITH CAUTION...ESPECIALLY DEWPOINT AND RELATIVE
    HUMIDITY OBSERVATIONS.

INZ001>003-010>013-019-020-221100-
NORTHWEST INDIANA

CITY           SKY/WX    TMP DP  RH WIND       PRES   REMARKS
GARY /AIRPORT/ MOCLDY    77  66  69 SW9G23    29.86F
KNOX *+        CLOUDY    73  59  60 SW12      29.89S
MICHIGAN CITY+ CLOUDY    73  66  78 S7        29.87F
MONTICELLO +   CLOUDY    74  68  81 SW10      29.91F
RENSSELAER +   CLOUDY    73  66  78 SW12      29.90F

$$

LMZ046-743>745-221100-
SOUTHERN LAKE MICHIGAN

STATION/POSITION TIME  TEMP    WIND        PRES    WAVE
                       AIR SEA DIR/SP/G            HT
                 (UTC) (F)     (DEG/KT/KT) (MB)    (FT)
BURNS HARBOR     0940   77     210/ 16/ 23 1011.2F
MICHIGAN CITY    0930   76     190/ 14/ 18   N/A
5NW MICH CITY    0950   74 68  210/ 14/ 17   N/A     1

$$

INZ004-005-014>016-021>024-221100-
NORTH CENTRAL INDIANA

CITY           SKY/WX    TMP DP  RH WIND       PRES   REMARKS
GOSHEN         CLOUDY    73  65  75 SW9       29.90F
SOUTH BEND     CLOUDY    73  67  81 SW10      29.89F

$$

INZ006>009-017-018-025>027-221100-
NORTHEAST INDIANA

CITY           SKY/WX    TMP DP  RH WIND       PRES   REMARKS
FORT WAYNE     CLOUDY    73  68  84 SW10      29.94S
KENDALLVILLE + CLOUDY    67  60  78 S5        29.93F

$$

INZ028-029-035-036-043>045-051>053-221100-
WEST CENTRAL INDIANA

CITY           SKY/WX    TMP DP  RH WIND       PRES   REMARKS
CRAWFORDSVL +  PTCLDY   -31 -31 100 S6        29.94F WCI -48
LAFAYETTE      CLOUDY    73  68  84 SW5       29.92S
TERRE HAUTE    PTCLDY    72  66  81 S7        29.94F

$$

INZ030>032-037>040-046>048-054>057-064-065-221100-
CENTRAL INDIANA

CITY           SKY/WX    TMP DP  RH WIND       PRES   REMARKS
GREENWOOD *+   PTCLDY    71  66  83 S5        29.98S
INDIANAPOLIS   MOCLDY    72  67  84 S7        29.95F
-EAGLE CREEK   PTCLDY    73  66  78 SW5       29.95F
KOKOMO +       MOCLDY    74  67  78 SW13      29.95S
MT COMFORT *+  MOCLDY    70  66  88 S6        29.98S
SHELBYVILLE    PTCLDY    72  66  81 S7        29.97S

$$

INZ033-034-041-042-049-050-058-059-221100-
EAST CENTRAL INDIANA

CITY           SKY/WX    TMP DP  RH WIND       PRES   REMARKS
MUNCIE         PTCLDY    74  67  78 SW9       29.96F
RICHMOND +     CLOUDY    70  64  83 SW7       30.00F

$$

INZ060-061-067>069-081>083-085>088-221100-
SOUTHWEST INDIANA

CITY           SKY/WX    TMP DP  RH WIND       PRES   REMARKS
EVANSVILLE     MOCLDY    73  67  81 S7        29.97F
HUNTINGBURG *+ CLOUDY    72  68  87 S5        29.99R

$$

INZ062-063-066-070>080-084-089>092-221100-
SOUTH CENTRAL AND SOUTHEAST INDIANA

CITY           SKY/WX    TMP DP  RH WIND       PRES   REMARKS
BLOOMINGTON    MOCLDY    70  64  81 CALM      29.97F
MADISON *+     CLOUDY    72  66  83 CALM      30.03S

$$





USA.gov is the U.S. government's official web portal to all federal, state and local government web resources and services.